Zurück zum Katalog

STARLINK-32333

AktivKommunikationVLEO
NORAD 61626·PAYLOAD·🇺🇸 United States

Gestartet Oct 23, 2024 von Cape Canaveral Space Force Station

Loading…

Nächste Überflüge (nächste 24 Stunden)

TLE

AktuellSource: CelesTrak SupGP

Epoche: Sep 14, 2026, 21:13 UTC

1 61626C 24191F   26257.88451389 -.00024142  00000+0 -87447-3 0  2570
2 61626  42.9991 169.6888 0001399 265.4312 289.8238 15.27589087    11

Verfolge STARLINK-32333 in Echtzeit mit AllMySat

Download on the App Store